Weather History for Cincinnati, OH

Change the Weather History Date:

Tuesday, November 5, 2013

  Actual Average Record
Temperature  
Mean Temperature 52 °F -  
Max Temperature 61 °F 56 °F 80 °F (1975)
Min Temperature 43 °F 38 °F 17 °F (1991)
Degree Days  
Heating Degree Days 12    
Growing Degree Days 2 (Base 50)    
Moisture  
Dew Point 44 °F    
Average Humidity 77    
Maximum Humidity 97    
Minimum Humidity 49    
Precipitation  
Precipitation 0.00 in - - ()
Sea Level Pressure  
Sea Level Pressure 30.36 in    
Wind  
Wind Speed 1 mph (South)    
Max Wind Speed 7 mph    
Max Gust Speed -    
Visibility 10 miles    
Events      
Averages and records for this station are not official NWS values.
T = Trace of Precipitation, MM = Missing Value Source: NWS Daily Summary

Daily Weather History Graph

Daily Weather History Graph

Search for Another Location

Airport:

Trip Planner

Search our weather history database for the weather conditions in past years. The results will help you decide how hot, cold, wet, or windy it might be!

Date:

Astronomy

Nov. 05, 2013 Rise Set
Actual Time 7:09 AM EST 5:32 PM EST
Civil Twilight 6:41 AM EST 6:00 PM EST
Nautical Twilight 6:10 AM EST 6:31 PM EST
Astronomical Twilight 5:38 AM EST 7:03 PM EST
Moon 9:23 AM EST (11/5) 7:33 PM EST (11/5)
Length of Visible Light 11h 18m
Length of Day
10h 22m
Waxing Crescent, 6% of the Moon is Illuminated
Nov 5
Waxing Crescent
Nov 10
First Quarter
Nov 17
Full
Nov 25
Last Quarter
Dec 2
New

Hourly Weather History & Observations

Time (EST) Temp. Dew Point Humidity Pressure Visibility Wind Dir Wind Speed Gust Speed Precip Events Conditions
12:53 AM 48.0 °F 45.0 °F 89% 30.36 in 10.0 mi Calm Calm - N/A   Mostly Cloudy
1:53 AM 48.9 °F 46.0 °F 90% 30.37 in 10.0 mi Calm Calm - 0.00 in   Overcast
2:53 AM 48.9 °F 46.0 °F 90% 30.37 in 10.0 mi Calm Calm - N/A   Overcast
3:53 AM 48.9 °F 48.0 °F 97% 30.38 in 9.0 mi Calm Calm - 0.00 in   Overcast
4:53 AM 48.9 °F 48.0 °F 97% 30.40 in 6.0 mi Calm Calm - N/A   Overcast
5:53 AM 48.9 °F 48.0 °F 97% 30.40 in 9.0 mi Calm Calm - N/A   Overcast
6:53 AM 48.9 °F 46.9 °F 93% 30.40 in 10.0 mi Calm Calm - N/A   Overcast
7:53 AM 48.0 °F 46.9 °F 96% 30.42 in 9.0 mi Calm Calm - N/A   Mostly Cloudy
8:53 AM 51.1 °F 48.0 °F 89% 30.43 in 10.0 mi Calm Calm - N/A   Mostly Cloudy
9:53 AM 55.0 °F 45.0 °F 69% 30.43 in 10.0 mi Calm Calm - N/A   Mostly Cloudy
10:53 AM 55.9 °F 43.0 °F 62% 30.43 in 10.0 mi SSW 4.6 mph - N/A   Mostly Cloudy
11:53 AM 57.9 °F 41.0 °F 53% 30.42 in 10.0 mi SW 4.6 mph - N/A   Clear
12:53 PM 60.1 °F 42.1 °F 51% 30.39 in 10.0 mi South 6.9 mph - N/A   Clear
1:53 PM 60.1 °F 41.0 °F 49% 30.36 in 10.0 mi Calm Calm - N/A   Clear
2:53 PM 61.0 °F 44.1 °F 54% 30.35 in 10.0 mi South 3.5 mph - N/A   Clear
3:53 PM 60.1 °F 42.1 °F 51% 30.32 in 10.0 mi SSE 5.8 mph - N/A   Clear
4:53 PM 59.0 °F 41.0 °F 51% 30.31 in 10.0 mi SSE 5.8 mph - N/A   Clear
5:53 PM 57.9 °F 39.9 °F 51% 30.30 in 9.0 mi Calm Calm - N/A   Clear
6:53 PM 52.0 °F 43.0 °F 71% 30.30 in 10.0 mi Calm Calm - N/A   Clear
7:53 PM 48.9 °F 43.0 °F 80% 30.30 in 10.0 mi Calm Calm - N/A   Clear
8:53 PM 45.0 °F 42.1 °F 90% 30.29 in 10.0 mi Calm Calm - N/A   Clear
9:53 PM 45.0 °F 42.1 °F 90% 30.28 in 10.0 mi Calm Calm - N/A   Clear
10:53 PM 44.1 °F 42.1 °F 93% 30.27 in 10.0 mi Calm Calm - N/A   Clear
11:53 PM 43.0 °F 42.1 °F 97% 30.25 in 10.0 mi Calm Calm - N/A   Clear